When you browse on this site, cookies collect data to enhance your experience and personalize the content and advertising you see.
Visit our Privacy Policy to learn more. By continuing to use the site, you agree to this use of cookies and data.
  • Em Portugal
  • Lista de países
  • Para 7 dias
  • Temperatura da água
  • Mapa do tempo
  • Widgets de tempo
  • user-avatar
    Iniciar Sessão

    Previsão horária em Podlopien

    Hoje, 29 Janeiro, Quarta-feira

    Tempo Temperatura Precipitação Vento Pressão Humidade
    00:00 +1°C° 0 mm 2 m/s 713 mmHg 88%
    01:00 -1°C° 0 mm 4 m/s 712 mmHg 89%
    02:00 -1°C° 0.1 mm 4 m/s 713 mmHg 88%
    03:00 -1°C° 0.1 mm 4 m/s 713 mmHg 88%
    04:00 -2°C° 0.1 mm 4 m/s 713 mmHg 87%
    05:00 -2°C° 0 mm 4 m/s 713 mmHg 86%
    06:00 -2°C° 0 mm 3 m/s 714 mmHg 86%
    07:00 -2°C° 0 mm 3 m/s 714 mmHg 86%
    08:00 -2°C° 0 mm 4 m/s 715 mmHg 80%
    09:00 -2°C° 0 mm 5 m/s 715 mmHg 74%
    10:00 -1°C° 0 mm 5 m/s 715 mmHg 69%
    11:00 -1°C° 0 mm 6 m/s 715 mmHg 67%
    12:00 -1°C° 0 mm 6 m/s 715 mmHg 65%
    13:00 +1°C° 0 mm 6 m/s 716 mmHg 63%
    14:00 0°C° 0 mm 5 m/s 715 mmHg 68%
    15:00 -1°C° 0 mm 5 m/s 715 mmHg 72%
    16:00 -1°C° 0 mm 4 m/s 715 mmHg 77%
    17:00 -1°C° 0 mm 4 m/s 716 mmHg 80%
    18:00 -2°C° 0 mm 4 m/s 717 mmHg 83%
    19:00 -2°C° 0 mm 4 m/s 717 mmHg 86%
    20:00 -2°C° 0 mm 4 m/s 717 mmHg 88%
    21:00 -2°C° 0 mm 4 m/s 717 mmHg 89%
    22:00 -2°C° 0 mm 4 m/s 717 mmHg 90%
    23:00 -1°C° 0.1 mm 3 m/s 718 mmHg 91%

    Amanhã, 30 Janeiro, Quinta-feira

    Tempo Temperatura Precipitação Vento Pressão Humidade
    00:00 -2°C° 0.1 mm 3 m/s 719 mmHg 91%
    01:00 -2°C° 0.1 mm 3 m/s 719 mmHg 92%
    02:00 -3°C° 0.1 mm 4 m/s 719 mmHg 92%
    03:00 -3°C° 0.1 mm 4 m/s 719 mmHg 92%
    04:00 -3°C° 0.1 mm 4 m/s 720 mmHg 92%
    05:00 -3°C° 0.1 mm 4 m/s 720 mmHg 93%
    06:00 -3°C° 0.1 mm 4 m/s 720 mmHg 93%
    07:00 -3°C° 0.1 mm 4 m/s 721 mmHg 93%
    08:00 -2°C° 0 mm 4 m/s 721 mmHg 87%
    09:00 -1°C° 0 mm 4 m/s 721 mmHg 81%
    10:00 -1°C° 0 mm 4 m/s 721 mmHg 75%
    11:00 0°C° 0 mm 4 m/s 721 mmHg 72%
    12:00 +1°C° 0 mm 4 m/s 721 mmHg 68%
    13:00 +1°C° 0 mm 4 m/s 721 mmHg 65%
    14:00 +1°C° 0 mm 4 m/s 721 mmHg 69%
    15:00 +1°C° 0 mm 3 m/s 721 mmHg 74%
    16:00 +1°C° 0 mm 3 m/s 720 mmHg 79%
    17:00 +1°C° 0.1 mm 3 m/s 720 mmHg 82%
    18:00 0°C° 0.1 mm 3 m/s 720 mmHg 86%
    19:00 0°C° 0.1 mm 3 m/s 720 mmHg 89%
    20:00 0°C° 0 mm 3 m/s 720 mmHg 89%
    21:00 0°C° 0 mm 3 m/s 719 mmHg 89%
    22:00 +1°C° 0 mm 2 m/s 719 mmHg 89%
    23:00 0°C° 0 mm 3 m/s 719 mmHg 88%

    Depois de amanhã, 31 Janeiro, Sexta-feira

    Tempo Temperatura Precipitação Vento Pressão Humidade
    00:00 0°C° 0 mm 3 m/s 719 mmHg 87%
    01:00 0°C° 0 mm 3 m/s 719 mmHg 86%
    02:00 0°C° 0 mm 3 m/s 718 mmHg 85%
    03:00 0°C° 0 mm 3 m/s 717 mmHg 83%
    04:00 0°C° 0 mm 3 m/s 717 mmHg 82%
    05:00 +1°C° 0.1 mm 3 m/s 716 mmHg 82%
    06:00 +2°C° 0.1 mm 3 m/s 715 mmHg 83%
    07:00 +1°C° 0.1 mm 4 m/s 715 mmHg 84%
    08:00 +3°C° 1 mm 4 m/s 714 mmHg 86%
    09:00 +4°C° 1 mm 4 m/s 714 mmHg 89%
    10:00 +5°C° 1 mm 5 m/s 714 mmHg 91%
    11:00 +5°C° 0.6 mm 5 m/s 714 mmHg 90%
    12:00 +5°C° 0.6 mm 5 m/s 715 mmHg 88%
    13:00 +5°C° 0.6 mm 6 m/s 715 mmHg 87%
    14:00 +6°C° 0.2 mm 5 m/s 716 mmHg 85%
    15:00 +5°C° 0.2 mm 5 m/s 716 mmHg 83%
    16:00 +5°C° 0.2 mm 5 m/s 717 mmHg 81%
    17:00 +5°C° 0 mm 5 m/s 718 mmHg 83%
    18:00 +3°C° 0 mm 5 m/s 719 mmHg 84%
    19:00 +4°C° 0 mm 4 m/s 719 mmHg 86%
    20:00 +4°C° 0 mm 4 m/s 720 mmHg 87%
    21:00 +3°C° 0 mm 3 m/s 720 mmHg 88%
    22:00 +3°C° 0 mm 3 m/s 721 mmHg 89%
    23:00 +3°C° 0 mm 3 m/s 721 mmHg 89%

    1 Fevereiro, Sábado

    Tempo Temperatura Precipitação Vento Pressão Humidade
    00:00 +4°C° 0 mm 2 m/s 721 mmHg 89%
    01:00 +3°C° 0 mm 2 m/s 721 mmHg 89%
    02:00 +3°C° 0 mm 2 m/s 721 mmHg 89%
    03:00 +3°C° 0 mm 2 m/s 721 mmHg 88%
    04:00 +3°C° 0 mm 2 m/s 721 mmHg 88%
    05:00 +3°C° 0 mm 2 m/s 721 mmHg 88%
    06:00 +3°C° 0 mm 2 m/s 721 mmHg 88%
    07:00 +3°C° 0 mm 2 m/s 721 mmHg 88%
    08:00 +4°C° 0 mm 2 m/s 721 mmHg 86%
    09:00 +5°C° 0 mm 2 m/s 721 mmHg 83%
    10:00 +5°C° 0 mm 3 m/s 721 mmHg 81%
    11:00 +8°C° 0 mm 3 m/s 721 mmHg 78%
    12:00 +9°C° 0 mm 3 m/s 720 mmHg 76%
    13:00 +10°C° 0 mm 3 m/s 720 mmHg 74%
    14:00 +9°C° 0 mm 3 m/s 719 mmHg 78%
    15:00 +8°C° 0 mm 3 m/s 719 mmHg 81%
    16:00 +7°C° 0 mm 3 m/s 719 mmHg 85%
    17:00 +7°C° 0 mm 3 m/s 718 mmHg 85%
    18:00 +5°C° 0 mm 3 m/s 718 mmHg 85%
    19:00 +5°C° 0 mm 3 m/s 718 mmHg 85%
    20:00 +5°C° 0.4 mm 3 m/s 718 mmHg 87%
    21:00 +5°C° 0.4 mm 3 m/s 717 mmHg 88%
    22:00 +5°C° 0.4 mm 3 m/s 717 mmHg 89%
    23:00 +5°C° 0.5 mm 3 m/s 717 mmHg 90%

    2 Fevereiro, Domingo

    Tempo Temperatura Precipitação Vento Pressão Humidade
    00:00 +5°C° 0.5 mm 4 m/s 717 mmHg 91%
    01:00 +5°C° 0.5 mm 4 m/s 717 mmHg 92%
    02:00 +5°C° 0.9 mm 4 m/s 718 mmHg 89%
    03:00 +3°C° 0.9 mm 5 m/s 718 mmHg 87%
    04:00 +3°C° 0.9 mm 5 m/s 719 mmHg 85%
    05:00 +3°C° 0 mm 4 m/s 720 mmHg 84%
    06:00 +1°C° 0 mm 4 m/s 720 mmHg 84%
    07:00 +1°C° 0 mm 4 m/s 721 mmHg 83%
    08:00 +1°C° 0 mm 4 m/s 721 mmHg 82%
    09:00 +1°C° 0 mm 5 m/s 722 mmHg 80%
    10:00 +2°C° 0 mm 6 m/s 723 mmHg 78%
    11:00 +2°C° 0 mm 6 m/s 723 mmHg 78%
    12:00 +2°C° 0 mm 7 m/s 723 mmHg 78%
    13:00 +2°C° 0 mm 7 m/s 723 mmHg 77%
    14:00 +2°C° 0 mm 6 m/s 723 mmHg 81%
    15:00 +1°C° 0 mm 6 m/s 723 mmHg 85%
    16:00 +1°C° 0 mm 5 m/s 724 mmHg 89%
    17:00 +1°C° 0 mm 4 m/s 724 mmHg 88%
    18:00 +1°C° 0 mm 4 m/s 724 mmHg 88%
    19:00 +1°C° 0 mm 3 m/s 724 mmHg 87%
    20:00 +1°C° 0 mm 3 m/s 725 mmHg 86%
    21:00 +1°C° 0 mm 3 m/s 725 mmHg 85%
    22:00 +2°C° 0 mm 2 m/s 725 mmHg 84%
    23:00 +1°C° 0 mm 3 m/s 724 mmHg 84%

    3 Fevereiro, Segunda-feira

    Tempo Temperatura Precipitação Vento Pressão Humidade
    00:00 +1°C° 0 mm 3 m/s 724 mmHg 84%
    01:00 +1°C° 0 mm 3 m/s 724 mmHg 83%
    02:00 +1°C° 0.1 mm 3 m/s 724 mmHg 85%
    03:00 +2°C° 0.1 mm 3 m/s 723 mmHg 87%
    04:00 +3°C° 0.1 mm 3 m/s 723 mmHg 89%
    05:00 +3°C° 0.1 mm 3 m/s 723 mmHg 89%
    06:00 +4°C° 0.1 mm 3 m/s 723 mmHg 88%
    07:00 +4°C° 0.1 mm 4 m/s 722 mmHg 88%
    08:00 +5°C° 0.1 mm 4 m/s 723 mmHg 86%
    09:00 +5°C° 0.1 mm 5 m/s 723 mmHg 85%
    10:00 +5°C° 0.1 mm 6 m/s 723 mmHg 84%
    11:00 +5°C° 0.1 mm 6 m/s 723 mmHg 80%
    12:00 +5°C° 0.1 mm 6 m/s 724 mmHg 77%
    13:00 +6°C° 0.1 mm 7 m/s 724 mmHg 73%
    14:00 +5°C° 0.1 mm 6 m/s 724 mmHg 76%
    15:00 +6°C° 0.1 mm 5 m/s 724 mmHg 79%
    16:00 +5°C° 0.1 mm 3 m/s 725 mmHg 82%
    17:00 +5°C° 0 mm 3 m/s 725 mmHg 84%
    18:00 +5°C° 0 mm 2 m/s 725 mmHg 87%
    19:00 +5°C° 0 mm 2 m/s 725 mmHg 89%
    20:00 +4°C° 0 mm 2 m/s 725 mmHg 89%
    21:00 +4°C° 0 mm 2 m/s 725 mmHg 89%
    22:00 +4°C° 0 mm 2 m/s 725 mmHg 90%
    23:00 +4°C° 0.4 mm 2 m/s 725 mmHg 89%
    Mostrar mais